Probability
0 0 0 0 0 0 0 0 0 0 0 0 0 0 0 0 0 0 0 0 0 0 0 0 0 0 0 0 0 0 0 0 0 0 0 0 0 0
0 0 0 0 0 0 0 0 0 0 0 0 0 0 0 0 0 0 0 0 0 0 0 0 0 0 0 0 0 0 0 0 0 0 0 0 0 0
0 0 0 1 1 1 0 0 0 1 1 0 0 0 0 0 0 0 0 0 0 0 0 0 0 0 0 0 0 0 0 0 0 0 0 0 0 0
0 0 0 1 1 1 0 0 0 1 2 1 0 0 0 0 0 0 0 0 0 0 0 0 0 0 0 0 0 0 0 0 0 0 0 0 0 0
0 0 0 1 1 0 0 0 0 1 2 1 0 0 0 0 0 0 0 0 0 0 0 0 0 0 0 0 0 0 0 0 0 0 0 0 0 0
0 0 0 0 0 0 0 0 0 0 1 1 0 0 0 0 0 0 0 0 0 0 0 0 0 0 0 0 0 0 0 0 0 0 0 0 0 0
0 0 0 0 0 0 0 0 0 0 0 0 0 0 0 0 0 0 0 0 0 0 0 0 0 0 0 0 0 0 0 0 0 0 0 0 0 0
0 0 0 0 0 0 0 0 0 0 0 0 0 0 0 0 0 0 0 0 0 0 0 0 0 0 0 0 0 0 0 0 0 0 0 0 0 0
0 0 0 0 0 0 0 0 0 0 0 0 0 0 0 0 0 0 0 0 0 0 0 0 0 0 0 0 0 0 0 0 0 0 0 0 0 0
0 0 0 0 0 0 0 0 0 0 0 0 0 0 0 0 0 0 0 0 0 0 0 0 0 0 0 0 0 0 0 0 0 0 0 0 0 0
0 0 0 0 0 0 0 0 0 0 0 0 0 0 0 0 0 0 0 0 0 0 0 0 0 0 0 0 0 0 0 0 0 0 0 0 0 0
0 0 0 0 0 0 0 0 0 0 0 0 0 0 0 0 0 0 0 0 0 0 0 0 0 0 0 0 0 0 0 0 0 0 0 0 0 0
0 0 0 0 0 0 0 0 0 0 0 0 0 0 0 0 0 0 0 0 0 0 0 0 0 0 0 0 0 0 0 0 0 0 0 0 0 0
0 0 0 0 0 0 0 0 0 0 0 0 0 0 0 0 0 0 0 0 0 0 0 0 0 0 0 0 0 0 0 0 0 0 0 0 0 0
0 0 0 0 0 0 0 0 0 0 0 0 0 0 0 0 0 0 0 0 0 0 0 0 0 0 0 0 0 0 0 0 0 0 0 0 0 0
0 0 0 0 0 0 0 0 0 0 0 0 0 0 0 0 0 0 0 0 0 0 0 0 0 0 0 0 0 0 0 0 0 0 0 0 0 0
0 0 0 0 0 0 0 0 0 0 0 0 0 0 0 0 0 0 0 0 0 0 0 0 0 0 0 0 0 0 0 0 0 0 0 0 0 0
0 0 0 0 0 0 0 0 0 0 0 0 0 0 0 0 0 0 0 0 0 0 0 0 0 0 0 0 0 0 0 0 0 0 0 0 0 0
0 0 0 0 0 0 0 0 0 0 0 0 0 0 0 0 0 0 0 0 0 0 0 0 0 0 0 0 0 0 0 0 0 0 0 0 0 0
0 0 0 0 0 0 0 0 0 0 0 0 0 0 0 0 0 0 0 0 0 0 0 0 0 0 0 0 0 0 0 0 0 0 0 0 0 0
0 0 0 0 0 0 0 0 0 0 0 0 0 0 0 0 0 0 0 0 0 0 0 0 0 0 0 0 0 0 0 0 0 0 0 0 0 0
0 0 0 0 0 0 0 0 0 0 0 0 0 0 0 0 0 0 0 0 0 0 0 0 0 0 0 0 0 0 0 0 0 0 0 0 0 0
0 0 0 0 0 0 0 0 0 0 0 0 0 0 0 0 0 0 0 0 0 0 0 0 0 0 0 0 0 0 0 0 0 0 0 0 0 0
Wind_Speed
3 3 2 1 1 2 2 2 3 3 3 2 1 1 1 1 3 2 2 4 4 4 4 3 3 4 4 4 5 5 6 6 6 7 8 8 8 8
2 2 2 2 1 1 2 2 2 3 3 2 2 2 2 2 3 1 2 4 4 4 4 3 3 3 3 4 4 4 5 6 6 7 7 8 8 8
1 2 2 2 2 1 1 1 2 1 3 3 2 1 2 2 2 1 1 1 2 4 4 4 3 3 4 4 4 4 5 6 6 6 7 7 8 8
2 2 3 2 2 2 2 2 2 2 2 3 2 2 2 2 1 1 1 1 1 3 3 3 3 3 3 4 4 5 5 5 5 6 7 7 8 8
3 3 3 3 3 2 2 2 2 2 2 2 2 1 1 1 1 1 1 1 2 2 2 2 2 3 4 4 4 4 4 4 5 6 6 7 8 9
3 3 3 4 4 4 3 3 2 2 2 2 2 1 1 1 1 1 1 1 2 2 2 2 3 4 4 4 4 4 4 4 5 5 7 7 8 9
3 3 4 5 5 4 3 3 3 3 2 2 2 2 2 1 2 1 1 1 2 1 0 1 1 1 2 3 4 4 4 4 5 5 6 7 8 8
4 3 4 4 5 6 6 6 5 5 4 4 3 3 3 3 2 2 1 1 2 1 0 2 1 2 2 2 4 5 4 4 5 6 6 7 8 8
4 3 3 3 4 3 4 5 6 7 7 4 4 5 4 4 3 3 2 2 3 2 0 2 2 2 2 3 5 4 4 4 5 6 6 6 7 7
4 4 4 3 3 3 2 2 2 3 4 3 4 4 3 3 4 3 3 1 1 1 1 2 2 2 3 2 4 3 3 5 5 5 5 6 7 8
3 3 3 3 5 5 3 3 2 2 2 3 3 3 4 3 2 2 2 1 2 2 1 1 1 2 2 2 3 3 3 5 5 6 6 6 7 7
2 2 4 4 5 5 3 3 3 2 1 1 1 1 1 2 3 3 3 3 2 2 2 1 1 1 2 2 1 1 2 4 6 6 7 7 7 4
1 1 2 4 5 5 3 3 4 2 1 1 1 1 0 1 1 1 2 3 3 3 2 2 2 1 2 2 2 2 2 2 3 4 5 7 7 5
2 1 2 3 3 3 2 3 3 2 1 1 1 1 1 1 1 1 1 1 2 3 3 2 2 2 2 2 3 2 2 2 2 3 2 5 6 7
1 2 2 3 2 1 2 2 1 1 1 1 1 1 1 1 0 0 0 0 1 1 2 2 2 2 2 2 2 2 2 2 2 2 2 3 3 3
1 2 2 2 1 1 1 1 1 1 1 1 1 1 0 0 0 0 0 0 1 2 1 1 2 3 2 3 3 3 2 2 2 2 3 3 3 3
1 0 0 0 0 0 0 0 0 1 1 1 1 1 1 1 1 1 1 1 1 2 2 2 1 1 3 3 3 3 3 3 3 3 2 3 3 3
2 1 1 1 2 1 1 1 1 1 1 1 1 1 1 1 1 1 1 2 2 2 2 2 1 1 1 2 5 4 3 3 2 2 2 3 4 3
2 2 2 2 2 2 1 1 1 1 1 1 1 1 1 1 1 2 2 2 2 2 2 2 1 1 2 3 3 3 3 2 2 2 3 3 4 5
1 1 2 2 1 1 1 1 1 1 1 1 1 1 2 2 2 2 2 2 2 2 2 2 2 3 3 3 3 3 4 3 2 3 3 3 4 6
1 1 1 1 1 2 1 1 1 1 1 2 2 2 2 2 2 2 2 3 2 2 3 3 3 3 1 0 1 3 2 4 5 3 3 3 4 4
1 2 2 2 2 2 2 2 2 2 2 2 2 2 2 2 2 3 2 2 3 3 3 2 1 1 1 2 3 3 3 3 4 6 6 6 3 3
2 2 2 2 2 2 2 3 3 2 2 2 2 2 2 2 2 2 2 3 2 2 2 2 1 1 2 2 2 3 4 4 3 3 4 6 8 10
Wind_Direction
192 196 205 219 211 211 206 203 194 227 247 240 247 261 273 267 284 279 284 289 292 297 301 300 300 299 301 301 300 298 296 295 297 295 296 295 300 298
194 193 209 213 207 214 208 226 221 213 241 245 251 275 274 285 289 288 284 302 299 298 298 298 297 301 305 303 305 304 303 302 303 302 300 298 300 302
199 201 225 216 207 216 211 218 233 219 244 269 271 283 267 270 293 298 287 277 280 292 295 293 295 309 312 310 308 305 302 306 308 308 309 308 304 301
211 211 231 228 214 211 208 217 225 221 213 250 272 278 274 252 253 276 308 321 289 291 295 292 303 312 313 314 317 312 309 309 308 309 309 309 308 307
210 214 226 217 221 219 212 218 222 225 208 215 250 267 283 268 261 300 305 306 303 306 313 319 322 325 321 315 317 316 314 311 311 316 315 311 309 308
216 217 223 222 222 217 215 217 214 210 195 201 227 250 257 261 216 231 290 297 303 316 327 323 327 330 323 315 315 315 314 309 312 316 315 313 309 308
222 225 226 232 237 233 226 212 202 204 202 205 220 234 241 233 228 217 240 303 301 276 314 302 303 294 304 305 305 300 309 314 314 315 313 312 310 308
223 231 235 236 242 248 247 236 222 212 208 208 223 225 236 232 219 208 204 243 278 256 259 294 282 270 277 266 287 304 310 314 315 316 315 315 314 311
218 221 234 240 241 232 248 253 244 243 236 223 216 226 225 220 210 215 218 231 249 242 251 280 280 271 276 280 290 303 317 323 321 321 320 317 318 316
220 216 219 232 235 227 219 234 242 250 252 245 223 227 228 221 212 213 207 210 275 266 206 262 280 274 285 279 277 290 320 331 324 321 322 325 323 323
231 223 219 224 240 239 214 212 235 249 264 257 260 253 240 235 206 149 173 185 270 270 230 224 269 296 286 269 270 287 316 324 329 333 330 326 324 326
232 234 238 239 241 236 209 198 220 239 223 241 301 304 241 219 217 199 198 196 220 251 219 198 232 299 298 280 266 279 292 307 319 322 325 323 324 328
221 236 245 246 244 241 227 208 224 230 193 179 185 233 223 200 219 217 213 201 210 239 217 196 215 219 239 279 281 259 251 281 307 304 309 316 320 320
226 240 245 257 252 245 239 223 223 220 161 159 192 246 252 237 230 215 200 212 228 239 231 211 217 214 224 262 269 267 264 259 273 285 288 309 317 319
216 225 253 271 272 248 244 228 200 163 165 185 225 256 260 244 221 169 161 213 309 285 260 235 223 223 223 240 253 250 281 272 251 262 285 293 289 297
216 229 251 272 291 259 235 223 180 183 190 208 228 245 272 225 229 226 239 282 318 310 302 276 239 225 244 245 244 256 250 250 263 273 281 281 279 272
171 119 274 240 243 227 118 130 159 162 216 220 208 217 230 242 246 211 218 239 250 266 289 302 290 258 244 235 242 246 249 253 251 263 276 285 278 272
174 182 216 221 222 214 215 229 215 214 217 212 207 218 235 244 251 247 234 229 239 250 254 253 275 337 336 288 235 234 239 244 250 258 257 275 285 283
188 203 219 220 218 210 213 220 237 235 214 211 223 229 236 242 241 246 243 240 245 248 247 233 222 213 265 283 278 232 228 250 260 269 259 260 274 283
193 204 221 223 215 212 216 224 238 232 222 228 229 232 232 233 236 244 247 243 246 250 254 244 228 221 225 240 260 273 264 245 248 266 280 282 277 283
221 221 231 233 231 223 221 224 223 227 230 233 235 235 233 232 239 240 248 249 248 239 243 247 244 264 257 216 277 282 277 273 266 260 270 283 291 291
241 238 241 239 236 231 227 224 224 229 229 234 239 239 239 237 241 239 239 244 240 238 245 256 247 244 211 227 254 271 292 302 302 297 283 265 255 257
247 247 243 242 239 233 228 227 227 232 233 234 236 238 238 241 239 239 244 246 247 239 239 251 257 246 241 235 251 269 280 292 301 311 303 295 283 277